Location: Igon
(43.1667°N, 0.2333°W)
Time: 14:40:41
(UTC+00:00)

Cosmos 1500 Rocket - Pass Details

Date: 29 November 2020
Orbit: 603 x 631 km, 82.5° (Epoch: 23 January)

Event Time Altitude Azimuth Distance (km) Brightness Sun altitude
Rises 06:06:41 0° 207° (SSW) 2,843 6.9 -11.5°
Reaches altitude 10° 06:09:01 10° 215° (SW) 1,945 6.0 -11.1°
Maximum altitude 06:13:01 37° 284° (WNW) 945 4.0 -10.5°
Drops below altitude 10° 06:17:03 10° 352° (N) 1,966 5.9 -9.8°
Sets 06:19:25 0° 1° (N) 2,878 6.8 -9.4°
